Weather History for Kansas City, MO

Change the Weather History Date:

Monday, January 16, 2012

  Actual Average Record
Temperature  
Mean Temperature 52 °F -  
Max Temperature 66 °F 37 °F 66 °F (2012)
Min Temperature 39 °F 21 °F 1 °F (2007)
Degree Days  
Heating Degree Days 12    
Growing Degree Days 2 (Base 50)    
Moisture  
Dew Point 35 °F    
Average Humidity 56    
Maximum Humidity 77    
Minimum Humidity 24    
Precipitation  
Precipitation 0.00 in - - ()
Sea Level Pressure  
Sea Level Pressure 29.70 in    
Wind  
Wind Speed 12 mph (WSW)    
Max Wind Speed 23 mph    
Max Gust Speed 33 mph    
Visibility 10 miles    
Events      
Averages and records for this station are not official NWS values.
T = Trace of Precipitation, MM = Missing Value Source: NWS Daily Summary

Daily Weather History Graph

Daily Weather History Graph

Search for Another Location

Airport:

Trip Planner

Search our weather history database for the weather conditions in past years. The results will help you decide how hot, cold, wet, or windy it might be!

Date:

Astronomy

Jan. 16, 2012 Rise Set
Actual Time 7:35 AM CST 5:20 PM CST
Civil Twilight 7:06 AM CST 5:49 PM CST
Nautical Twilight 6:33 AM CST 6:22 PM CST
Astronomical Twilight 6:01 AM CST 6:54 PM CST
Moon 12:46 AM CST (1/16) 11:34 AM CST (1/16)
Length of Visible Light 10h 43m
Length of Day
9h 44m
Last Quarter, 46% of the Moon is Illuminated
Jan 16
Last Quarter
Jan 23
New
Jan 30
First Quarter
Feb 7
Full
Feb 14
Last Quarter

Hourly Weather History & Observations

Time (CST) Temp. Windchill Dew Point Humidity Pressure Visibility Wind Dir Wind Speed Gust Speed Precip Events Conditions
12:54 AM 51.1 °F - 32.0 °F 48% 29.79 in 10.0 mi SSW 13.8 mph - N/A   Clear
1:54 AM 50.0 °F - 33.1 °F 52% 29.76 in 10.0 mi South 13.8 mph 19.6 mph N/A   Clear
2:54 AM 48.9 °F - 36.0 °F 61% 29.75 in 10.0 mi South 6.9 mph - N/A   Clear
3:54 AM 46.0 °F 43.1 °F 36.0 °F 68% 29.72 in 10.0 mi South 5.8 mph - N/A   Clear
4:54 AM 50.0 °F - 42.1 °F 74% 29.69 in 10.0 mi SSW 12.7 mph 20.7 mph N/A   Clear
5:54 AM 52.0 °F - 44.1 °F 74% 29.68 in 10.0 mi SSW 11.5 mph - N/A   Clear
6:54 AM 51.1 °F - 44.1 °F 77% 29.69 in 10.0 mi SSW 10.4 mph - N/A   Clear
7:54 AM 52.0 °F - 45.0 °F 77% 29.68 in 10.0 mi SSW 10.4 mph - N/A   Clear
8:54 AM 54.0 °F - 46.0 °F 75% 29.68 in 10.0 mi South 11.5 mph - N/A   Clear
9:54 AM 57.9 °F - 46.0 °F 65% 29.68 in 10.0 mi SW 17.3 mph 28.8 mph N/A   Clear
10:54 AM 61.0 °F - 41.0 °F 48% 29.67 in 10.0 mi SW 23.0 mph 33.4 mph N/A   Clear
11:54 AM 63.0 °F - 39.9 °F 43% 29.65 in 10.0 mi SW 23.0 mph 31.1 mph N/A   Clear
12:54 PM 64.9 °F - 36.0 °F 34% 29.63 in 10.0 mi SW 19.6 mph 27.6 mph N/A   Clear
1:54 PM 66.0 °F - 30.0 °F 26% 29.61 in 10.0 mi WSW 10.4 mph 29.9 mph N/A   Clear
2:54 PM 64.0 °F - 26.1 °F 24% 29.62 in 10.0 mi West 18.4 mph 24.2 mph N/A   Clear
3:54 PM 59.0 °F - 26.1 °F 28% 29.65 in 10.0 mi West 11.5 mph - N/A   Clear
4:54 PM 55.9 °F - 27.0 °F 33% 29.68 in 10.0 mi West 10.4 mph 17.3 mph N/A   Clear
5:54 PM 50.0 °F - 34.0 °F 54% 29.70 in 10.0 mi WNW 10.4 mph - N/A   Clear
6:54 PM 45.0 °F 43.5 °F 35.1 °F 68% 29.73 in 10.0 mi WNW 3.5 mph - N/A   Clear
7:54 PM 44.1 °F 39.0 °F 33.1 °F 65% 29.73 in 10.0 mi NW 9.2 mph - N/A   Clear
8:54 PM 44.1 °F 39.5 °F 28.0 °F 53% 29.74 in 10.0 mi North 8.1 mph - N/A   Overcast
9:54 PM 42.1 °F 37.7 °F 28.9 °F 60% 29.73 in 10.0 mi North 6.9 mph - 0.00 in   Partly Cloudy
10:54 PM 39.9 °F 33.4 °F 30.0 °F 68% 29.71 in 10.0 mi NNE 10.4 mph - 0.00 in   Overcast
11:54 PM 39.9 °F 33.4 °F 30.0 °F 68% 29.72 in 10.0 mi North 10.4 mph - N/A   Overcast